Terminal Aerodrome Forecast
Issued by NWS

Home | Current Version | Previous Version | Text Only | Print | Product List | Glossary On
Versions: 1 2 3 4 5 6 7 8 9 10 11 12 13 14 15 16 17 18 19 20 21 22 23 24 25 26 27 28 29 30 31 32 33 34 35 36 37 38 39 40 41 42 43 44 45 46 47 48 49 50
000
FTUS46 KEKA 211900 CCA
TAFACV
TAF COR
KACV 211901Z 2118/2218 30006KT P6SM OVC005
     FM212100 33010KT P6SM SKC
     FM220700 VRB03KT 5SM BR OVC006
     FM221000 00000KT 3SM BR OVC004=

USA.gov is the U.S. government's official web portal to all federal, state and local government web resources and services.